Weather reports worldwide

Advertisment
Northampton (Moulton Park), United Kingdom (99115): temperature & dewpoint: 19.09.2017 10:00:00 - 25.09.2017 10:00:00 (BST)Northampton (Moulton Park), United Kingdom (99115): temperature -100cm: 19.09.2017 10:00:00 - 25.09.2017 10:00:00 (BST)Northampton (Moulton Park), United Kingdom (99115): precipitation: 19.09.2017 10:00:00 - 25.09.2017 10:00:00 (BST)
Date & Time tt [°C] td [°C] tt -100cm [°C] rr [mm]
25.09.2017 10:00:00 14,2 14,1 - 0,0
25.09.2017 09:00:00 13,7 13,7 - 2,0
25.09.2017 08:00:00 13,4 13,4 - 4,0
25.09.2017 07:00:00 13,4 13,3 - 4,6
25.09.2017 06:00:00 13,5 13,3 - 6,0
25.09.2017 05:00:00 13,9 13,7 - 4,8
25.09.2017 04:00:00 13,9 13,7 - 2,2
25.09.2017 03:00:00 13,9 13,6 - 1,4
25.09.2017 02:00:00 13,9 13,4 - 0,4
25.09.2017 01:00:00 14,1 13,3 - 0,6
25.09.2017 00:00:00 14,4 12,6 - 0,0
24.09.2017 23:00:00 14,9 12,3 - 0,0
24.09.2017 22:00:00 15,3 12,2 - 0,0
24.09.2017 21:00:00 15,6 12,2 - 0,0
24.09.2017 20:00:00 17,1 11,8 - 0,0
24.09.2017 19:00:00 18,6 11,2 - 0,0
24.09.2017 18:00:00 19,1 10,9 - 0,0
24.09.2017 17:00:00 19,8 10,3 - 0,0
24.09.2017 16:00:00 20,2 9,7 - 0,0
24.09.2017 15:00:00 20,4 10,5 - 0,0
24.09.2017 14:00:00 19,8 10,9 - 0,0
24.09.2017 13:00:00 20,1 10,8 - 0,0
24.09.2017 12:00:00 19,1 11,6 - 0,0
24.09.2017 11:00:00 17,9 12,4 - 0,0
24.09.2017 10:00:00 16,0 11,6 14,2 0,0
24.09.2017 09:00:00 13,7 11,4 - 0,0
24.09.2017 08:00:00 11,4 11,1 - 0,0
24.09.2017 07:00:00 10,5 10,2 - 0,0
24.09.2017 06:00:00 10,5 10,1 - 0,0
24.09.2017 05:00:00 10,8 10,2 - 0,0
24.09.2017 04:00:00 11,0 9,9 - 0,0
24.09.2017 03:00:00 11,2 9,3 - 0,0
24.09.2017 02:00:00 11,0 8,6 - 0,0
24.09.2017 01:00:00 11,3 8,3 - 0,0
24.09.2017 00:00:00 11,2 8,4 - 0,0
23.09.2017 23:00:00 12,5 8,6 - 0,0
23.09.2017 22:00:00 13,1 8,5 - 0,0
23.09.2017 21:00:00 14,0 8,5 - 0,0
23.09.2017 20:00:00 14,6 9,1 - 0,0
23.09.2017 19:00:00 15,6 9,4 - 0,0
23.09.2017 18:00:00 17,1 10,2 - 0,0
23.09.2017 17:00:00 18,0 11,2 - 0,0
23.09.2017 16:00:00 18,7 11,8 - 0,0
23.09.2017 15:00:00 17,9 11,5 - 0,0
23.09.2017 14:00:00 18,1 10,6 - 0,0
23.09.2017 13:00:00 17,4 11,0 - 0,0
23.09.2017 12:00:00 16,2 11,7 - 0,0
23.09.2017 11:00:00 14,7 10,9 - 0,0
23.09.2017 10:00:00 14,6 12,0 14,2 0,0
23.09.2017 09:00:00 13,9 12,3 - 0,0
23.09.2017 08:00:00 13,0 11,8 - 0,0
23.09.2017 07:00:00 12,7 11,7 - 0,0
23.09.2017 06:00:00 12,7 11,5 - 0,0
23.09.2017 05:00:00 12,7 11,5 - 0,0
23.09.2017 04:00:00 12,7 11,2 - 0,0
23.09.2017 03:00:00 12,8 10,7 - 0,0
23.09.2017 02:00:00 12,6 10,8 - 0,0
23.09.2017 01:00:00 12,3 10,1 - 0,0
23.09.2017 00:00:00 12,7 10,1 - 0,0
22.09.2017 23:00:00 12,9 10,0 - 0,0
22.09.2017 22:00:00 13,0 9,7 - 0,0
22.09.2017 21:00:00 14,0 9,1 - 0,0
22.09.2017 20:00:00 14,9 8,8 - 0,0
22.09.2017 19:00:00 15,4 8,4 - 0,0
22.09.2017 18:00:00 16,2 8,4 - 0,0
22.09.2017 17:00:00 16,9 8,7 - 0,0
22.09.2017 16:00:00 16,4 8,2 - 0,0
22.09.2017 15:00:00 17,6 8,4 - 0,0
22.09.2017 14:00:00 16,4 9,1 - 0,0
22.09.2017 13:00:00 15,6 7,6 - 0,0
22.09.2017 12:00:00 15,0 8,1 - 0,0
22.09.2017 11:00:00 14,2 10,0 - 0,0
22.09.2017 10:00:00 12,0 9,2 14,2 0,0
22.09.2017 09:00:00 8,6 8,1 - 0,0
22.09.2017 08:00:00 6,5 6,5 - 0,0
22.09.2017 07:00:00 5,6 5,6 - 0,0
22.09.2017 06:00:00 4,8 4,8 - 0,0
22.09.2017 05:00:00 4,9 4,6 - 0,0
22.09.2017 04:00:00 5,6 5,2 - 0,0
22.09.2017 03:00:00 6,6 6,0 - 0,2
22.09.2017 02:00:00 7,8 7,5 - 0,0
22.09.2017 01:00:00 8,4 7,8 - 0,0
22.09.2017 00:00:00 9,6 9,0 - 0,0
21.09.2017 23:00:00 11,4 11,4 - 0,0
21.09.2017 22:00:00 10,9 10,5 - 0,0
21.09.2017 21:00:00 11,8 11,2 - 0,0
21.09.2017 20:00:00 12,8 12,0 - 0,2
21.09.2017 19:00:00 13,6 12,7 - 0,0
21.09.2017 18:00:00 14,0 13,4 - 0,4
21.09.2017 17:00:00 13,8 13,3 - 1,2
21.09.2017 16:00:00 14,8 14,2 - 0,4
21.09.2017 15:00:00 14,7 13,8 - 0,2
21.09.2017 14:00:00 15,3 12,9 - 0,0
21.09.2017 13:00:00 15,3 12,3 - 0,0
21.09.2017 12:00:00 15,4 11,8 - 0,0
21.09.2017 11:00:00 15,7 11,6 - 0,0
21.09.2017 10:00:00 14,7 12,1 14,4 0,0
21.09.2017 09:00:00 14,6 12,4 - 0,0
21.09.2017 08:00:00 14,1 12,7 - 0,0
21.09.2017 07:00:00 14,2 12,5 - 0,0
21.09.2017 06:00:00 14,2 12,5 - 0,0
21.09.2017 05:00:00 13,9 12,7 - 0,0
21.09.2017 04:00:00 13,8 12,6 - 0,0
21.09.2017 03:00:00 13,6 12,4 - 0,0
21.09.2017 02:00:00 13,2 12,1 - 0,4
21.09.2017 01:00:00 13,7 11,5 - 0,0
21.09.2017 00:00:00 13,9 11,1 - 0,0
20.09.2017 23:00:00 13,8 11,3 - 0,0
20.09.2017 22:00:00 13,9 10,9 - 0,0
20.09.2017 21:00:00 14,3 10,5 - 0,0
20.09.2017 20:00:00 14,6 10,4 - 0,0
20.09.2017 19:00:00 15,9 10,4 - 0,0
20.09.2017 18:00:00 16,5 10,4 - 0,0
20.09.2017 17:00:00 16,9 10,7 - 0,0
20.09.2017 16:00:00 16,5 11,0 - 0,0
20.09.2017 15:00:00 16,7 10,3 - 0,0
20.09.2017 14:00:00 16,5 10,5 - 0,0
20.09.2017 13:00:00 17,1 11,3 - 0,0
20.09.2017 12:00:00 15,8 11,7 - 0,0
20.09.2017 11:00:00 14,8 11,2 - 0,0
20.09.2017 10:00:00 12,7 10,8 14,4 0,0
20.09.2017 09:00:00 11,4 10,4 - 0,0
20.09.2017 08:00:00 10,4 10,0 - 0,0
20.09.2017 07:00:00 9,5 9,2 - 0,0
20.09.2017 06:00:00 9,0 8,7 - 0,0
20.09.2017 05:00:00 8,1 7,7 - 0,0
20.09.2017 04:00:00 7,9 7,3 - 0,0
20.09.2017 03:00:00 8,1 7,4 - 0,0
20.09.2017 02:00:00 8,2 7,1 - 0,0
20.09.2017 01:00:00 8,8 7,1 - 0,0
20.09.2017 00:00:00 9,3 7,1 - 0,0
19.09.2017 23:00:00 9,9 7,2 - 0,0
19.09.2017 22:00:00 10,2 7,5 - 0,0
19.09.2017 21:00:00 9,3 6,4 - 0,0
19.09.2017 20:00:00 10,2 5,8 - 0,0
19.09.2017 19:00:00 13,1 6,0 - 0,0
19.09.2017 18:00:00 14,4 5,6 - 0,0
19.09.2017 17:00:00 14,4 6,6 - 0,0
19.09.2017 16:00:00 14,2 8,8 - 0,0
19.09.2017 15:00:00 14,9 6,1 - 0,0
19.09.2017 14:00:00 14,6 7,3 - 0,0
19.09.2017 13:00:00 14,2 8,7 - 0,0
19.09.2017 12:00:00 13,3 8,3 - 0,0
19.09.2017 11:00:00 12,2 9,9 - 0,0
19.09.2017 10:00:00 10,1 9,2 14,5 0,0

tt = temperature
td = dewpoint
tt -100cm = temperature -100cm
rr = precipitation

Next stations